Weather History for KALN - January, 2014

Change the Weather History Date:

Monday, January 13, 2014

  Actual Average Record
Temperature  
Mean Temperature 41 °F -  
Max Temperature 53 °F 34 °F 55 °F (2006)
Min Temperature 29 °F 22 °F 0 °F (1997)
Degree Days  
Heating Degree Days 24    
Moisture  
Dew Point 32 °F    
Average Humidity 67    
Maximum Humidity 99    
Minimum Humidity 41    
Precipitation  
Precipitation 0.00 in - - ()
Sea Level Pressure  
Sea Level Pressure 29.74 in    
Wind  
Wind Speed 9 mph (SSW)    
Max Wind Speed 18 mph    
Max Gust Speed 25 mph    
Visibility 10 miles    
Events      
Averages and records for this station are not official NWS values.
T = Trace of Precipitation, MM = Missing Value Source: NWS Daily Summary

Daily Weather History Graph

Daily Weather History Graph

Search for Another Location

Airport or City:

Trip Planner

Search our weather history database for the weather conditions in past years. The results will help you decide how hot, cold, wet, or windy it might be!

Date:

Astronomy

Jan. 13, 2014 Rise Set
Actual Time 7:17 AM CST 5:00 PM CST
Civil Twilight 6:48 AM CST 5:29 PM CST
Nautical Twilight 6:15 AM CST 6:02 PM CST
Astronomical Twilight 5:43 AM CST 6:34 PM CST
Moon 3:15 PM CST (1/13) 5:06 AM CST (1/13)
Length of Visible Light 10h 41m
Length of Day
9h 42m
Waxing Gibbous, 95% of the Moon is Illuminated
Jan 13
Waxing Gibbous
Jan 15
Full
Jan 23
Last Quarter
Jan 30
New
Feb 6
First Quarter

Hourly Weather History & Observations

Time (CST) Temp. Windchill Dew Point Humidity Pressure Visibility Wind Dir Wind Speed Gust Speed Precip Events Conditions
12:15 AM 45.9 °F 41.2 °F 32.2 °F 59% 29.68 in 10.0 mi South 9.2 mph - N/A   Unknown
12:35 AM 46.6 °F - 32.4 °F 58% 29.67 in 10.0 mi South 10.4 mph - N/A   Unknown
12:55 AM 45.9 °F 40.8 °F 32.5 °F 60% 29.66 in 10.0 mi SSE 10.4 mph - N/A   Unknown
1:15 AM 45.5 °F 40.8 °F 32.5 °F 61% 29.67 in 10.0 mi SSE 9.2 mph - N/A   Unknown
1:35 AM 45.7 °F 42.7 °F 32.5 °F 60% 29.67 in 10.0 mi SSE 5.8 mph - N/A   Unknown
1:55 AM 45.5 °F 42.5 °F 32.9 °F 61% 29.67 in 10.0 mi SSE 5.8 mph - N/A   Unknown
2:15 AM 46.0 °F 41.9 °F 32.9 °F 60% 29.67 in 10.0 mi SSE 8.1 mph - N/A   Unknown
2:35 AM 46.4 °F 42.9 °F 33.1 °F 60% 29.67 in 10.0 mi SSE 6.9 mph - N/A   Unknown
2:55 AM 46.6 °F - 33.1 °F 59% 29.66 in 10.0 mi South 9.2 mph - N/A   Unknown
3:15 AM 46.2 °F 40.8 °F 33.4 °F 61% 29.65 in 10.0 mi SSE 11.5 mph - N/A   Unknown
3:35 AM 46.6 °F - 33.4 °F 60% 29.65 in 10.0 mi South 11.5 mph - N/A   Unknown
3:55 AM 47.3 °F - 33.3 °F 58% 29.64 in 10.0 mi South 13.8 mph - N/A   Unknown
4:15 AM 47.5 °F - 33.3 °F 58% 29.63 in 10.0 mi South 13.8 mph - N/A   Unknown
4:35 AM 47.7 °F - 33.3 °F 57% 29.63 in 10.0 mi South 13.8 mph - N/A   Unknown
4:55 AM 47.3 °F - 33.4 °F 59% 29.62 in 10.0 mi South 13.8 mph - N/A   Unknown
5:15 AM 47.1 °F - 33.6 °F 59% 29.61 in 10.0 mi South 12.7 mph - N/A   Unknown
5:35 AM 46.6 °F - 33.8 °F 61% 29.61 in 10.0 mi South 13.8 mph - N/A   Unknown
5:55 AM 46.2 °F 40.8 °F 33.8 °F 62% 29.61 in 10.0 mi South 11.5 mph - N/A   Unknown
6:50 AM 46.4 °F - 33.8 °F 62% 29.62 in 10.0 mi North - - N/A   Mostly Cloudy
8:50 AM 46.4 °F - 32.0 °F 57% 29.70 in 10.0 mi North - - N/A   Mostly Cloudy
9:50 AM 44.6 °F - 32.0 °F 61% 29.74 in 10.0 mi North - - N/A   Mostly Cloudy
10:50 AM 44.6 °F - 32.0 °F 61% 29.75 in 10.0 mi North - - N/A   Mostly Cloudy
11:50 AM 48.2 °F - 32.0 °F 54% 29.73 in 10.0 mi WSW 9.2 mph - N/A   Partly Cloudy
12:50 PM 50.0 °F - 32.0 °F 50% 29.73 in 10.0 mi West 11.5 mph - N/A   Partly Cloudy
1:50 PM 51.8 °F - 32.0 °F 47% 29.72 in 10.0 mi WSW 11.5 mph - N/A   Partly Cloudy
2:50 PM 53.6 °F - 32.0 °F 44% 29.73 in 10.0 mi West 18.4 mph - N/A   Partly Cloudy
3:50 PM 51.8 °F - 28.4 °F 41% 29.75 in 10.0 mi West 18.4 mph - N/A   Partly Cloudy
4:50 PM 48.2 °F - 30.2 °F 50% 29.78 in 10.0 mi WNW 16.1 mph 25.3 mph N/A   Partly Cloudy
5:50 PM 42.8 °F 36.6 °F 30.2 °F 61% 29.81 in 10.0 mi WNW 11.5 mph - N/A   Clear
6:50 PM 41.0 °F 34.7 °F 30.2 °F 65% 29.84 in 10.0 mi WNW 10.4 mph - N/A   Clear
7:50 PM 41.0 °F 37.1 °F 30.2 °F 65% 29.86 in 10.0 mi NW 5.8 mph - N/A   Clear
8:50 PM 37.4 °F 32.8 °F 32.0 °F 81% 29.87 in 10.0 mi NNW 5.8 mph - N/A   Clear
9:15 PM 36.1 °F - 31.8 °F 84% 29.87 in 10.0 mi Calm Calm - N/A   Unknown
9:35 PM 35.2 °F - 31.6 °F 87% 29.87 in 10.0 mi Calm Calm - N/A   Unknown
9:50 PM 37.4 °F 32.8 °F 32.0 °F 81% 29.87 in 10.0 mi NNW 5.8 mph - N/A   Clear
9:55 PM 33.3 °F - 30.6 °F 90% 29.87 in 10.0 mi Calm Calm - N/A   Unknown
10:15 PM 32.0 °F - 30.9 °F 96% 29.87 in 10.0 mi Calm Calm - N/A   Unknown
10:35 PM 31.6 °F - 30.2 °F 94% 29.87 in 10.0 mi Calm Calm - N/A   Unknown
10:55 PM 30.2 °F - 29.5 °F 97% 29.88 in 10.0 mi Calm Calm - N/A   Unknown
11:15 PM 30.7 °F - 30.2 °F 98% 29.87 in 7.0 mi Calm Calm - N/A   Unknown
11:35 PM 29.7 °F 26.1 °F 29.5 °F 99% 29.87 in 7.0 mi SSW 3.5 mph - N/A   Unknown
11:55 PM 29.8 °F - 29.7 °F 99% 29.87 in 10.0 mi Calm Calm - N/A   Unknown